Regional Weather Roundup
Issued by NWS

Home | Current Version | Previous Version | Graphics & Text | Print | Product List | Glossary On
Versions: 1 2 3 4 5 6 7 8 9 10 11 12 13 14 15 16 17 18 19 20 21 22 23 24 25 26 27 28 29 30 31 32 33 34 35 36 37 38 39 40 41 42 43 44 45 46 47 48 49 50
000
ASUS43 KIND 280359
RWRIN

WEATHER ROUNDUP FOR INDIANA
NATIONAL WEATHER SERVICE INDIANAPOLIS IN
1100 PM EST SAT DEC 27 2014

NOTE: "FAIR" INDICATES FEW OR NO CLOUDS BELOW 12,000 FEET WITH NO
SIGNIFICANT WEATHER AND/OR OBSTRUCTIONS TO VISIBILITY.

* - STATION DOES NOT REPORT WEATHER SUCH AS PRECIPITATION OR FOG.

+ - STATION NOT QUALITY CONTROLLED BY THE NATIONAL WEATHER SERVICE.
    USE DATA WITH CAUTION...ESPECIALLY DEWPOINT AND RELATIVE
    HUMIDITY OBSERVATIONS.

INZ001>003-010>013-019-020-280500-
NORTHWEST INDIANA

CITY           SKY/WX    TMP DP  RH WIND       PRES   REMARKS
GARY /AIRPORT/ CLOUDY    36  23  59 NW12      30.11R
KNOX *+        CLOUDY    33  27  77 W8        30.10R WCI  26
VALPARAISO     NOT AVBL

$$

LMZ046-743>745-280500-
SOUTHERN LAKE MICHIGAN

STATION/POSITION TIME  TEMP WIND        PRES
                       AIR  DIR/SP/G
                 (UTC) (F)  (DEG/KT/KT) (MB)
MICHIGAN CITY    0300   35  270/ 19/ 22   N/A

$$

INZ004-005-014>016-021>024-280500-
NORTH CENTRAL INDIANA

CITY           SKY/WX    TMP DP  RH WIND       PRES   REMARKS
GOSHEN         CLOUDY    35  30  82 W10       30.06S WCI  27
SOUTH BEND     CLOUDY    35  29  78 W10       30.08  WCI  27
WARSAW +       CLOUDY    34  32  93 W9        30.06F WCI  26

$$

INZ006>009-017-018-025>027-280500-
NORTHEAST INDIANA

CITY           SKY/WX    TMP DP  RH WIND       PRES   REMARKS
ANGOLA *+      CLOUDY    36  28  75 NW13      30.03S
FORT WAYNE     LGT SNOW  33  32  96 W9        30.08R FOG     WCI  25

$$

INZ028-029-035-036-043>045-051>053-280500-
WEST CENTRAL INDIANA

CITY           SKY/WX    TMP DP  RH WIND       PRES   REMARKS
GREENCASTLE +  LGT RAIN  34  32  93 NW8       30.13R WCI  27
LAFAYETTE      CLOUDY    32  29  88 W7        30.12S WCI  26
TERRE HAUTE    LGT RAIN  36  33  89 NW8       30.14R

$$

INZ030>032-037>040-046>048-054>057-064-065-280500-
CENTRAL INDIANA

CITY           SKY/WX    TMP DP  RH WIND       PRES   REMARKS
CP ATTERBURY + RAIN      39  36  87 MISG      30.11S
INDIANAPOLIS   LGT RAIN  35  34  96 NW9       30.10S WCI  28
-EAGLE CREEK   LGT RAIN  35  34  96 NW10      30.10R WCI  27
KOKOMO *+      CLOUDY    34  28  80 W12       30.10F WCI  25
MT COMFORT *+  CLOUDY    37 N/A N/A NW8       30.10S
SHELBYVILLE    LGT RAIN  40  37  89 NW10      30.10S

$$

INZ033-034-041-042-049-050-058-059-280500-
EAST CENTRAL INDIANA

CITY           SKY/WX    TMP DP  RH WIND       PRES   REMARKS
MUNCIE         LGT RAIN  36  34  92 NW10      30.08F

$$

INZ060-061-067>069-081>083-085>088-280500-
SOUTHWEST INDIANA

CITY           SKY/WX    TMP DP  RH WIND       PRES   REMARKS
EVANSVILLE     LGT RAIN  42  39  89 N8        30.13F FOG
HUNTINGBURG *+ CLOUDY    41  37  87 N14       30.14R

$$

INZ062-063-066-070>080-084-089>092-280500-
SOUTH CENTRAL AND SOUTHEAST INDIANA

CITY           SKY/WX    TMP DP  RH WIND       PRES   REMARKS
BLOOMINGTON    RAIN      38  36  92 NW6       30.11R FOG

$$




USA.gov is the U.S. government's official web portal to all federal, state and local government web resources and services.